Time,TemperatureF,DewpointF,PressureIn,WindDirection,WindDirectionDegrees,WindSpeedMPH,WindSpeedGustMPH,Humidity,HourlyPrecipIn,Conditions,Clouds,dailyrainin,SoftwareType,DateUTC
2013-01-03 00:03:00,19.4,14.0,30.11,WNW,285,2.0,-999.0,79,-99.99,,,0.00,weatherlink.com 1.10,2013-01-03 06:03:00,
2013-01-03 00:18:00,18.9,13.0,30.12,NW,320,5.0,-999.0,79,-99.99,,,0.00,weatherlink.com 1.10,2013-01-03 06:18:00,
2013-01-03 00:33:00,18.4,13.0,30.12,West,276,4.0,-999.0,79,-99.99,,,0.00,weatherlink.com 1.10,2013-01-03 06:33:00,
2013-01-03 00:48:00,17.8,12.0,30.12,WSW,254,4.0,-999.0,79,-99.99,,,0.00,weatherlink.com 1.10,2013-01-03 06:48:00,
2013-01-03 01:03:00,17.3,12.0,30.13,WNW,290,4.0,-999.0,78,-99.99,,,0.00,weatherlink.com 1.10,2013-01-03 07:03:00,
2013-01-03 01:18:00,17.2,11.0,30.13,WSW,251,5.0,-999.0,78,-99.99,,,0.00,weatherlink.com 1.10,2013-01-03 07:18:00,
2013-01-03 01:48:00,16.9,11.0,30.14,NW,316,1.0,-999.0,78,-99.99,,,0.00,weatherlink.com 1.10,2013-01-03 07:48:00,
2013-01-03 02:03:00,16.5,11.0,30.14,NW,319,4.0,-999.0,77,-99.99,,,0.00,weatherlink.com 1.10,2013-01-03 08:03:00,
2013-01-03 02:18:00,16.4,10.0,30.15,West,281,3.0,-999.0,77,-99.99,,,0.00,weatherlink.com 1.10,2013-01-03 08:18:00,
2013-01-03 02:33:00,15.9,10.0,30.16,West,266,2.0,-999.0,77,-99.99,,,0.00,weatherlink.com 1.10,2013-01-03 08:33:00,
2013-01-03 02:48:00,15.6,10.0,30.16,WNW,287,1.0,-999.0,77,-99.99,,,0.00,weatherlink.com 1.10,2013-01-03 08:48:00,
2013-01-03 03:03:00,15.4,9.0,30.16,WNW,284,3.0,-999.0,77,-99.99,,,0.00,weatherlink.com 1.10,2013-01-03 09:03:00,
2013-01-03 03:18:00,15.2,9.0,30.17,WNW,303,5.0,-999.0,77,-99.99,,,0.00,weatherlink.com 1.10,2013-01-03 09:18:00,
2013-01-03 03:33:00,14.9,9.0,30.18,NW,307,1.0,-999.0,77,-99.99,,,0.00,weatherlink.com 1.10,2013-01-03 09:33:00,
2013-01-03 03:48:00,14.8,9.0,30.18,NW,318,1.0,-999.0,76,-99.99,,,0.00,weatherlink.com 1.10,2013-01-03 09:48:00,
2013-01-03 04:03:00,14.4,8.0,30.18,WNW,297,3.0,-999.0,76,-99.99,,,0.00,weatherlink.com 1.10,2013-01-03 10:03:00,
2013-01-03 04:18:00,14.4,8.0,30.18,NW,305,1.0,-999.0,76,-99.99,,,0.00,weatherlink.com 1.10,2013-01-03 10:18:00,
2013-01-03 04:33:00,14.3,8.0,30.18,NW,306,2.0,-999.0,77,-99.99,,,0.00,weatherlink.com 1.10,2013-01-03 10:33:00,
2013-01-03 04:49:00,14.3,8.0,30.19,NNW,330,4.0,-999.0,76,-99.99,,,0.00,weatherlink.com 1.10,2013-01-03 10:49:00,
2013-01-03 05:04:00,14.1,8.0,30.20,NW,315,3.0,-999.0,76,-99.99,,,0.00,weatherlink.com 1.10,2013-01-03 11:04:00,
2013-01-03 05:18:00,13.8,8.0,30.20,NW,320,3.0,-999.0,76,-99.99,,,0.00,weatherlink.com 1.10,2013-01-03 11:18:00,
2013-01-03 05:34:00,13.6,7.0,30.21,NW,317,0.0,-999.0,76,-99.99,,,0.00,weatherlink.com 1.10,2013-01-03 11:34:00,
2013-01-03 05:48:00,13.1,7.0,30.22,NW,309,2.0,-999.0,76,-99.99,,,0.00,weatherlink.com 1.10,2013-01-03 11:48:00,
2013-01-03 06:04:00,12.8,7.0,30.23,NNW,332,5.0,-999.0,76,-99.99,,,0.00,weatherlink.com 1.10,2013-01-03 12:04:00,
2013-01-03 06:18:00,12.6,6.0,30.23,West,279,0.0,-999.0,76,-99.99,,,0.00,weatherlink.com 1.10,2013-01-03 12:18:00,
2013-01-03 06:33:00,12.1,6.0,30.23,WNW,283,3.0,-999.0,75,-99.99,,,0.00,weatherlink.com 1.10,2013-01-03 12:33:00,
2013-01-03 06:48:00,11.7,5.0,30.24,NW,311,6.0,-999.0,75,-99.99,,,0.00,weatherlink.com 1.10,2013-01-03 12:48:00,
2013-01-03 07:03:00,11.2,5.0,30.25,NW,309,3.0,-999.0,75,-99.99,,,0.00,weatherlink.com 1.10,2013-01-03 13:03:00,
2013-01-03 07:18:00,10.4,4.0,30.25,WNW,298,2.0,-999.0,75,-99.99,,,0.00,weatherlink.com 1.10,2013-01-03 13:18:00,
2013-01-03 07:33:00,9.9,4.0,30.25,NW,304,1.0,-999.0,76,-99.99,,,0.00,weatherlink.com 1.10,2013-01-03 13:33:00,
2013-01-03 07:48:00,9.5,3.0,30.26,WNW,301,1.0,-999.0,76,-99.99,,,0.00,weatherlink.com 1.10,2013-01-03 13:48:00,
2013-01-03 08:03:00,9.3,3.0,30.26,West,264,3.0,-999.0,76,-99.99,,,0.00,weatherlink.com 1.10,2013-01-03 14:03:00,
2013-01-03 08:18:00,9.0,3.0,30.26,West,269,2.0,-999.0,76,-99.99,,,0.00,weatherlink.com 1.10,2013-01-03 14:18:00,
2013-01-03 08:33:00,9.0,3.0,30.27,WNW,286,1.0,-999.0,77,-99.99,,,0.00,weatherlink.com 1.10,2013-01-03 14:33:00,
2013-01-03 08:48:00,8.8,3.0,30.28,West,266,1.0,-999.0,77,-99.99,,,0.00,weatherlink.com 1.10,2013-01-03 14:48:00,
2013-01-03 09:03:00,8.6,3.0,30.28,West,262,0.0,-999.0,78,-99.99,,,0.00,weatherlink.com 1.10,2013-01-03 15:03:00,
2013-01-03 09:18:00,8.8,3.0,30.29,WSW,257,2.0,-999.0,78,-99.99,,,0.00,weatherlink.com 1.10,2013-01-03 15:18:00,
2013-01-03 09:33:00,8.8,4.0,30.29,WNW,283,2.0,-999.0,79,-99.99,,,0.00,weatherlink.com 1.10,2013-01-03 15:33:00,
2013-01-03 09:48:00,9.0,4.0,30.29,WNW,287,6.0,-999.0,79,-99.99,,,0.00,weatherlink.com 1.10,2013-01-03 15:48:00,
2013-01-03 10:03:00,9.0,3.0,30.30,West,271,3.0,-999.0,78,-99.99,,,0.00,weatherlink.com 1.10,2013-01-03 16:03:00,
2013-01-03 10:19:00,9.2,3.0,30.31,WNW,297,1.0,-999.0,77,-99.99,,,0.00,weatherlink.com 1.10,2013-01-03 16:19:00,
2013-01-03 10:34:00,9.2,3.0,30.31,WNW,285,2.0,-999.0,76,-99.99,,,0.00,weatherlink.com 1.10,2013-01-03 16:34:00,
2013-01-03 10:49:00,9.5,3.0,30.31,WNW,286,4.0,-999.0,76,-99.99,,,0.00,weatherlink.com 1.10,2013-01-03 16:49:00,
2013-01-03 11:03:00,9.9,4.0,30.31,WNW,296,3.0,-999.0,76,-99.99,,,0.00,weatherlink.com 1.10,2013-01-03 17:03:00,
2013-01-03 11:18:00,10.5,4.0,30.30,NW,306,2.0,-999.0,74,-99.99,,,0.00,weatherlink.com 1.10,2013-01-03 17:18:00,
2013-01-03 11:33:00,10.9,4.0,30.29,West,277,3.0,-999.0,72,-99.99,,,0.00,weatherlink.com 1.10,2013-01-03 17:33:00,
2013-01-03 11:48:00,11.1,4.0,30.29,WNW,303,0.0,-999.0,72,-99.99,,,0.00,weatherlink.com 1.10,2013-01-03 17:48:00,
2013-01-03 12:03:00,11.4,4.0,30.29,NW,305,0.0,-999.0,71,-99.99,,,0.00,weatherlink.com 1.10,2013-01-03 18:03:00,
2013-01-03 12:18:00,11.4,3.0,30.29,NW,318,3.0,-999.0,70,-99.99,,,0.00,weatherlink.com 1.10,2013-01-03 18:18:00,
2013-01-03 12:33:00,10.9,3.0,30.28,NW,307,1.0,-999.0,71,-99.99,,,0.00,weatherlink.com 1.10,2013-01-03 18:33:00,
2013-01-03 12:48:00,10.7,3.0,30.28,WNW,289,3.0,-999.0,71,-99.99,,,0.00,weatherlink.com 1.10,2013-01-03 18:48:00,
2013-01-03 13:03:00,9.9,2.0,30.28,West,274,9.0,-999.0,69,-99.99,,,0.00,weatherlink.com 1.10,2013-01-03 19:03:00,
2013-01-03 13:18:00,10.4,1.0,30.28,West,262,3.0,-999.0,67,-99.99,,,0.00,weatherlink.com 1.10,2013-01-03 19:18:00,
2013-01-03 14:03:00,10.5,1.0,30.28,West,272,3.0,-999.0,66,-99.99,,,0.00,weatherlink.com 1.10,2013-01-03 20:03:00,
2013-01-03 14:18:00,11.2,2.0,30.28,West,274,5.0,-999.0,66,-99.99,,,0.00,weatherlink.com 1.10,2013-01-03 20:18:00,
2013-01-03 14:34:00,10.9,2.0,30.28,WSW,257,9.0,-999.0,66,-99.99,,,0.00,weatherlink.com 1.10,2013-01-03 20:34:00,
2013-01-03 14:49:00,10.7,2.0,30.28,SW,223,4.0,-999.0,67,-99.99,,,0.00,weatherlink.com 1.10,2013-01-03 20:49:00,
2013-01-03 15:04:00,10.7,2.0,30.28,WSW,243,5.0,-999.0,67,-99.99,,,0.00,weatherlink.com 1.10,2013-01-03 21:04:00,
2013-01-03 15:19:00,10.7,2.0,30.29,WSW,248,4.0,-999.0,68,-99.99,,,0.00,weatherlink.com 1.10,2013-01-03 21:19:00,
2013-01-03 15:34:00,11.1,2.0,30.28,WSW,238,5.0,-999.0,68,-99.99,,,0.00,weatherlink.com 1.10,2013-01-03 21:34:00,
2013-01-03 15:48:00,11.2,3.0,30.28,WSW,241,5.0,-999.0,68,-99.99,,,0.00,weatherlink.com 1.10,2013-01-03 21:48:00,
2013-01-03 16:03:00,11.6,3.0,30.28,WSW,256,4.0,-999.0,68,-99.99,,,0.00,weatherlink.com 1.10,2013-01-03 22:03:00,
2013-01-03 16:18:00,11.6,3.0,30.28,WSW,247,6.0,-999.0,69,-99.99,,,0.00,weatherlink.com 1.10,2013-01-03 22:18:00,
2013-01-03 16:33:00,11.2,4.0,30.28,WSW,246,4.0,-999.0,71,-99.99,,,0.00,weatherlink.com 1.10,2013-01-03 22:33:00,
2013-01-03 16:48:00,11.1,4.0,30.27,WSW,257,5.0,-999.0,73,-99.99,,,0.00,weatherlink.com 1.10,2013-01-03 22:48:00,
2013-01-03 17:03:00,10.9,4.0,30.28,WSW,252,6.0,-999.0,74,-99.99,,,0.00,weatherlink.com 1.10,2013-01-03 23:03:00,
2013-01-03 17:18:00,10.7,4.0,30.27,WSW,237,3.0,-999.0,74,-99.99,,,0.00,weatherlink.com 1.10,2013-01-03 23:18:00,
2013-01-03 17:33:00,10.4,4.0,30.28,WSW,252,1.0,-999.0,75,-99.99,,,0.00,weatherlink.com 1.10,2013-01-03 23:33:00,
2013-01-03 17:48:00,10.0,4.0,30.27,SW,226,1.0,-999.0,76,-99.99,,,0.00,weatherlink.com 1.10,2013-01-03 23:48:00,
2013-01-03 18:03:00,9.9,4.0,30.27,SW,221,2.0,-999.0,77,-99.99,,,0.00,weatherlink.com 1.10,2013-01-04 00:03:00,
2013-01-03 18:18:00,10.2,4.0,30.26,SSW,208,3.0,-999.0,77,-99.99,,,0.00,weatherlink.com 1.10,2013-01-04 00:18:00,
2013-01-03 18:33:00,10.5,5.0,30.26,SSW,204,3.0,-999.0,78,-99.99,,,0.00,weatherlink.com 1.10,2013-01-04 00:33:00,
2013-01-03 18:48:00,10.4,5.0,30.25,South,186,4.0,-999.0,78,-99.99,,,0.00,weatherlink.com 1.10,2013-01-04 00:48:00,
2013-01-03 19:03:00,10.2,5.0,30.25,SSW,207,2.0,-999.0,79,-99.99,,,0.00,weatherlink.com 1.10,2013-01-04 01:03:00,
2013-01-03 19:18:00,10.4,5.0,30.25,SW,215,5.0,-999.0,79,-99.99,,,0.00,weatherlink.com 1.10,2013-01-04 01:18:00,
2013-01-03 19:33:00,10.7,6.0,30.24,SSW,212,11.0,-999.0,80,-99.99,,,0.00,weatherlink.com 1.10,2013-01-04 01:33:00,
2013-01-03 19:48:00,10.9,6.0,30.22,SSW,208,10.0,-999.0,80,-99.99,,,0.00,weatherlink.com 1.10,2013-01-04 01:48:00,
2013-01-03 20:03:00,11.4,6.0,30.22,SSW,202,8.0,-999.0,80,-99.99,,,0.00,weatherlink.com 1.10,2013-01-04 02:03:00,
2013-01-03 20:18:00,11.7,7.0,30.22,SSW,209,7.0,-999.0,80,-99.99,,,0.00,weatherlink.com 1.10,2013-01-04 02:18:00,
2013-01-03 20:33:00,12.4,7.0,30.21,SSW,204,4.0,-999.0,80,-99.99,,,0.00,weatherlink.com 1.10,2013-01-04 02:33:00,
2013-01-03 20:48:00,12.9,8.0,30.20,WSW,247,10.0,-999.0,80,-99.99,,,0.00,weatherlink.com 1.10,2013-01-04 02:48:00,
2013-01-03 21:03:00,13.1,8.0,30.19,SW,222,11.0,-999.0,80,-99.99,,,0.00,weatherlink.com 1.10,2013-01-04 03:03:00,
2013-01-03 21:18:00,13.6,9.0,30.18,SW,226,3.0,-999.0,80,-99.99,,,0.00,weatherlink.com 1.10,2013-01-04 03:18:00,
2013-01-03 21:33:00,14.1,9.0,30.17,SW,217,4.0,-999.0,80,-99.99,,,0.00,weatherlink.com 1.10,2013-01-04 03:33:00,
2013-01-03 21:48:00,14.1,9.0,30.17,SW,224,5.0,-999.0,80,-99.99,,,0.00,weatherlink.com 1.10,2013-01-04 03:48:00,
2013-01-03 22:03:00,14.1,9.0,30.16,SW,234,13.0,-999.0,81,-99.99,,,0.00,weatherlink.com 1.10,2013-01-04 04:03:00,
2013-01-03 22:18:00,14.1,9.0,30.17,SW,215,2.0,-999.0,81,-99.99,,,0.00,weatherlink.com 1.10,2013-01-04 04:18:00,
2013-01-03 22:33:00,14.3,10.0,30.17,SW,225,9.0,-999.0,81,-99.99,,,0.00,weatherlink.com 1.10,2013-01-04 04:33:00,
2013-01-03 22:48:00,14.3,10.0,30.17,SW,220,9.0,-999.0,81,-99.99,,,0.00,weatherlink.com 1.10,2013-01-04 04:48:00,
2013-01-03 23:03:00,14.8,10.0,30.16,SW,233,9.0,-999.0,81,-99.99,,,0.00,weatherlink.com 1.10,2013-01-04 05:03:00,
2013-01-03 23:18:00,14.9,10.0,30.15,SW,221,5.0,-999.0,81,-99.99,,,0.00,weatherlink.com 1.10,2013-01-04 05:18:00,
2013-01-03 23:33:00,15.2,10.0,30.15,SW,216,10.0,-999.0,81,-99.99,,,0.00,weatherlink.com 1.10,2013-01-04 05:33:00,
2013-01-03 23:48:00,15.9,11.0,30.14,SW,217,6.0,-999.0,80,-99.99,,,0.00,weatherlink.com 1.10,2013-01-04 05:48:00,